AirNav   Air Wisconsin pilot careers
 
 891 users online  

72NE J&J Airport
Springfield, Nebraska, USA

GOING TO SPRINGFIELD?


FAA INFORMATION EFFECTIVE 24 MAY 2018

Location

FAA Identifier: 72NE
Lat/Long: 41-04-44.9950N / 096-09-11.0560W
41-04.749917N / 096-09.184267W
41.0791653 / -96.1530711
(estimated)
Elevation: 1135 ft. / 346 m (estimated)
Variation: 06E (1985)
From city: 1 mile W of SPRINGFIELD, NE
Time zone: UTC -5 (UTC -6 during Standard Time)
Zip code: 68059

Airport Operations

Airport use: Private use. Permission required prior to landing
Activation date: 11/1968
Control tower: no
ARTCC: MINNEAPOLIS CENTER
FSS: COLUMBUS FLIGHT SERVICE STATION
Attendance: UNATNDD
Wind indicator: yes
Segmented circle: no

Airport Communications

WX AWOS-3 at MLE (7 nm N): 118.25 (402-895-6778)
WX AWOS-3 at PMV (13 nm SE): 118.975 (402-298-7524)
WX ASOS at OMA (18 nm NE): PHONE 402-271-7515

Nearby radio navigation aids

VOR radial/distance  VOR name  Freq  Var
OVRr246/19.5OMAHA VORTAC116.3008E
LNKr062/28.3LINCOLN VORTAC116.1009E
SCBr140/38.1SCRIBNER VOR/DME111.0006E

 
NDB name  Hdg/Dist  Freq  Var  ID
PLATTSMOUTH302/13.632905EPMV .--. -- ...-
WAHOO110/22.340006EAHQ .- .... --.-
NEBRASKA CITY330/31.434705EAFK .- ..-. -.-
SHENANDOAH295/39.141105ESDA ... -.. .-

Airport Services

Airframe service: NONE
Powerplant service: NONE

Runway Information

Runway 16/34

Dimensions: 1800 x 80 ft. / 549 x 24 m
Surface: turf
RUNWAY 16  RUNWAY 34
Traffic pattern: leftleft
Obstructions: 15 ft. bldg, 30 ft. from runwaynone
4' FENCE 10' NORTH OF PAD.

Airport Ownership and Management from official FAA records

Ownership: Privately-owned
Owner: JOHN STARTZER
RR 1
SPRINGFIELD, NE 68059
Phone 402-253-2539
Manager: JOHN STARTZER
RR 1
SPRINGFIELD, NE 68059
Phone 402-253-2539

Instrument Procedures

There are no published instrument procedures at 72NE.

Some nearby airports with instrument procedures:

KMLE - Millard Airport (7 nm N)
KOFF - Offutt Air Force Base (11 nm E)
KPMV - Plattsmouth Municipal Airport (13 nm SE)
KOMA - Eppley Airfield (18 nm NE)
KBTA - Blair Municipal Airport (20 nm N)
 
Loc | Ops | Rwys | IFR | FBO | Links
Com | Nav | Svcs | Stats | Notes

Silverhawk Aviation, Inc.
AirBoss

 
Area around 72NE (J&J Airport)
 
Road maps at: MapQuest Bing Google
 
Aerial photo
No photo
 
Sectional chart

 
Airport distance calculator
Flying to J&J Airport? Find the distance to fly.

From to 72NE

Sunrise and sunset
Times for 26-May-2018
 Local
(UTC-5)
 Zulu
(UTC)
Morning civil twilight05:2610:26
Sunrise05:5910:59
Sunset20:4501:45
Evening civil twilight21:1702:17

Current date and time
Zulu (UTC)  26-May-2018 20:18:54
Local (UTC-5)  26-May-2018 15:18:54
 
METAR
KMLE 
7nm N 
261955Z AUTO 00000KT 10SM CLR 36/15 A2976 RMK AO2 T03560154
KOFF 
11nm E 
261956Z AUTO 00000KT 10SM CLR 36/15 A2975 RMK AO2 SLP068 T03590145 $
KPMV 
13nm SE 
261955Z AUTO 00000KT 10SM CLR 36/15 A2976 RMK AO2 T03560152
KOMA 
18nm NE 
261952Z 29006KT 10SM FEW035 37/12 A2975 RMK AO2 SLP062 TCU DSNT SE T03720122
TAF
KOFF 
11nm E 
261800Z 2618/2724 03009KT 9999 SKC QNH2976INS WND VRB06KT AFT 2700 TX36/2621Z TN19/2711Z
KOMA 
18nm NE 
261722Z 2618/2718 35004KT P6SM SKC FM270200 11004KT P6SM SKC FM271300 17004KT P6SM SKC
NOTAMs
Click for the latest NOTAMs
NOTAMs are issued by the DoD/FAA and will open in a separate window not controlled by AirNav.

 

 
 

Would you like to see your business listed on this page?

 If your business provides an interesting product or service to pilots, flight crews, aircraft, or users of the J&J Airport, you should consider listing it here.  To start the listing process, click on the button below
 
Add a business
 

Other Pages about J&J Airport

Update a link
 
Copyright © AirNav, LLC. All rights reserved. Privacy Policy  Contact